TimeEST,TemperatureF,Dew PointF,Humidity,Sea Level PressureIn,VisibilityMPH,Wind Direction,Wind SpeedMPH,Gust SpeedMPH,PrecipitationIn,Events,Conditions,WindDirDegrees,DateUTC
12:15 AM,32.0,30.2,93,29.61,3.0,SE,4.6,-,N/A,,Overcast,140,2013-12-15 05:15:00
12:35 AM,32.0,30.2,93,29.60,7.0,SSE,5.8,-,0.02,,Overcast,150,2013-12-15 05:35:00
12:55 AM,32.0,30.2,93,29.59,2.5,South,5.8,-,0.04,,Overcast,170,2013-12-15 05:55:00
1:15 AM,33.8,30.2,87,29.59,2.5,South,5.8,-,0.02,,Overcast,190,2013-12-15 06:15:00
1:35 AM,33.8,30.2,87,29.58,2.5,SSW,5.8,-,0.03,,Overcast,210,2013-12-15 06:35:00
1:55 AM,33.8,30.2,87,29.58,2.0,SW,8.1,-,0.05,,Overcast,220,2013-12-15 06:55:00
2:15 AM,33.8,30.2,87,29.59,1.8,SW,6.9,-,0.01,,Overcast,220,2013-12-15 07:15:00
2:35 AM,33.8,30.2,87,29.58,2.5,WSW,9.2,-,0.03,,Overcast,250,2013-12-15 07:35:00
2:55 AM,33.8,30.2,87,29.59,3.0,West,8.1,-,0.05,,Overcast,260,2013-12-15 07:55:00
3:15 AM,33.8,30.2,87,29.60,3.0,West,13.8,-,0.01,,Overcast,260,2013-12-15 08:15:00
3:35 AM,33.8,30.2,87,29.60,3.0,West,15.0,-,0.02,,Overcast,270,2013-12-15 08:35:00
3:55 AM,32.0,28.4,87,29.61,5.0,West,11.5,17.3,0.03,,Overcast,280,2013-12-15 08:55:00
4:15 AM,32.0,30.2,93,29.62,10.0,West,13.8,21.9,N/A,,Overcast,280,2013-12-15 09:15:00
4:35 AM,32.0,28.4,87,29.63,10.0,WNW,11.5,21.9,0.01,,Overcast,290,2013-12-15 09:35:00
4:55 AM,30.2,26.6,86,29.64,10.0,WNW,13.8,19.6,0.01,,Overcast,300,2013-12-15 09:55:00
5:15 AM,30.2,26.6,86,29.66,10.0,WNW,11.5,20.7,N/A,,Overcast,290,2013-12-15 10:15:00
5:35 AM,30.2,24.8,80,29.68,8.0,WNW,13.8,19.6,N/A,,Overcast,300,2013-12-15 10:35:00
5:55 AM,28.4,24.8,86,29.69,7.0,West,15.0,18.4,N/A,,Overcast,280,2013-12-15 10:55:00
6:15 AM,28.4,23.0,80,29.70,9.0,West,10.4,19.6,N/A,,Overcast,280,2013-12-15 11:15:00
6:35 AM,26.6,23.0,86,29.71,9.0,WNW,11.5,17.3,N/A,,Overcast,300,2013-12-15 11:35:00
6:55 AM,26.6,23.0,86,29.72,8.0,West,12.7,18.4,N/A,,Overcast,270,2013-12-15 11:55:00
7:15 AM,26.6,21.2,80,29.73,9.0,WNW,10.4,18.4,N/A,,Overcast,290,2013-12-15 12:15:00
7:35 AM,26.6,21.2,80,29.73,10.0,West,10.4,18.4,N/A,,Overcast,280,2013-12-15 12:35:00
7:55 AM,24.8,21.2,86,29.74,8.0,West,12.7,18.4,N/A,,Overcast,270,2013-12-15 12:55:00
8:15 AM,24.8,21.2,86,29.74,10.0,WNW,10.4,20.7,N/A,,Overcast,290,2013-12-15 13:15:00
8:35 AM,24.8,21.2,86,29.75,7.0,WNW,9.2,-,N/A,,Overcast,290,2013-12-15 13:35:00
8:55 AM,24.8,19.4,80,29.76,6.0,WNW,8.1,-,N/A,,Overcast,300,2013-12-15 13:55:00
9:15 AM,24.8,19.4,80,29.76,4.0,WNW,8.1,-,N/A,,Overcast,290,2013-12-15 14:15:00
9:35 AM,24.8,21.2,86,29.76,4.0,West,9.2,-,N/A,,Overcast,280,2013-12-15 14:35:00
9:55 AM,24.8,21.2,86,29.76,4.0,West,10.4,-,N/A,,Overcast,260,2013-12-15 14:55:00
10:15 AM,24.8,21.2,86,29.77,4.0,West,9.2,-,N/A,,Overcast,270,2013-12-15 15:15:00
10:35 AM,24.8,19.4,80,29.78,3.0,WSW,11.5,-,N/A,,Overcast,250,2013-12-15 15:35:00
10:55 AM,24.8,17.6,74,29.78,1.8,WSW,11.5,-,N/A,,Overcast,250,2013-12-15 15:55:00
11:15 AM,24.8,17.6,74,29.78,2.0,West,12.7,18.4,N/A,,Overcast,260,2013-12-15 16:15:00
11:35 AM,23.0,17.6,80,29.78,2.5,WSW,13.8,18.4,N/A,,Overcast,240,2013-12-15 16:35:00
11:55 AM,24.8,19.4,80,29.77,1.8,WSW,15.0,19.6,N/A,,Overcast,240,2013-12-15 16:55:00
12:15 PM,24.8,17.6,74,29.77,2.0,WSW,12.7,18.4,N/A,,Overcast,250,2013-12-15 17:15:00
12:35 PM,24.8,17.6,74,29.77,3.0,WSW,11.5,-,N/A,,Overcast,250,2013-12-15 17:35:00
12:55 PM,24.8,17.6,74,29.77,5.0,SW,12.7,19.6,N/A,,Overcast,230,2013-12-15 17:55:00
1:15 PM,24.8,17.6,74,29.76,5.0,WSW,11.5,19.6,N/A,,Overcast,240,2013-12-15 18:15:00
1:35 PM,24.8,17.6,74,29.76,7.0,WSW,12.7,19.6,N/A,,Overcast,250,2013-12-15 18:35:00
1:55 PM,24.8,17.6,74,29.76,10.0,WSW,16.1,20.7,N/A,,Overcast,240,2013-12-15 18:55:00
2:15 PM,24.8,17.6,74,29.77,6.0,WSW,11.5,-,N/A,,Overcast,250,2013-12-15 19:15:00
2:35 PM,24.8,17.6,74,29.76,3.0,WSW,13.8,18.4,N/A,,Overcast,240,2013-12-15 19:35:00
2:55 PM,24.8,19.4,80,29.76,3.0,SW,10.4,19.6,N/A,,Overcast,230,2013-12-15 19:55:00
3:15 PM,24.8,19.4,80,29.76,5.0,SW,12.7,-,N/A,,Overcast,230,2013-12-15 20:15:00
3:35 PM,24.8,19.4,80,29.76,3.0,SW,10.4,17.3,N/A,,Overcast,220,2013-12-15 20:35:00
3:55 PM,24.8,19.4,80,29.77,3.0,SW,16.1,21.9,N/A,,Overcast,230,2013-12-15 20:55:00
4:15 PM,24.8,19.4,80,29.77,3.0,WSW,18.4,23.0,N/A,,Overcast,240,2013-12-15 21:15:00
4:35 PM,24.8,19.4,80,29.78,3.0,WSW,15.0,27.6,N/A,,Overcast,250,2013-12-15 21:35:00
4:55 PM,24.8,15.8,69,29.79,4.0,WSW,19.6,32.2,N/A,,Mostly Cloudy,250,2013-12-15 21:55:00
5:15 PM,23.0,15.8,74,29.80,8.0,West,17.3,25.3,N/A,,Overcast,270,2013-12-15 22:15:00
5:35 PM,21.2,12.2,68,29.80,9.0,West,16.1,26.5,N/A,,Overcast,270,2013-12-15 22:35:00
5:55 PM,21.2,12.2,68,29.81,10.0,West,12.7,-,N/A,,Overcast,260,2013-12-15 22:55:00
6:15 PM,21.2,12.2,68,29.82,10.0,West,15.0,26.5,N/A,,Overcast,270,2013-12-15 23:15:00
6:35 PM,21.2,12.2,68,29.83,10.0,West,18.4,24.2,N/A,,Overcast,260,2013-12-15 23:35:00
6:55 PM,19.4,12.2,74,29.84,8.0,West,13.8,26.5,N/A,,Overcast,260,2013-12-15 23:55:00
7:15 PM,19.4,14.0,80,29.85,9.0,WSW,19.6,27.6,N/A,,Overcast,250,2013-12-16 00:15:00
7:35 PM,19.4,12.2,74,29.86,9.0,West,15.0,21.9,N/A,,Overcast,270,2013-12-16 00:35:00
7:55 PM,19.4,12.2,74,29.87,7.0,West,19.6,25.3,N/A,,Overcast,260,2013-12-16 00:55:00
8:15 PM,17.6,10.4,73,29.88,8.0,West,12.7,27.6,N/A,,Overcast,280,2013-12-16 01:15:00
8:35 PM,17.6,10.4,73,29.89,9.0,West,20.7,27.6,N/A,,Overcast,270,2013-12-16 01:35:00
8:55 PM,17.6,10.4,73,29.89,10.0,West,15.0,29.9,N/A,,Overcast,270,2013-12-16 01:55:00
9:15 PM,17.6,10.4,73,29.90,10.0,WSW,11.5,20.7,N/A,,Overcast,250,2013-12-16 02:15:00
9:35 PM,17.6,8.6,68,29.90,9.0,West,10.4,23.0,N/A,,Overcast,260,2013-12-16 02:35:00
9:55 PM,15.8,10.4,79,29.92,10.0,West,16.1,20.7,N/A,,Overcast,260,2013-12-16 02:55:00
10:15 PM,15.8,8.6,73,29.92,10.0,West,11.5,20.7,N/A,,Overcast,260,2013-12-16 03:15:00
10:35 PM,15.8,8.6,73,29.92,10.0,WSW,12.7,-,N/A,,Overcast,250,2013-12-16 03:35:00
10:55 PM,15.8,6.8,68,29.92,10.0,WSW,8.1,-,N/A,,Overcast,240,2013-12-16 03:55:00
11:15 PM,15.8,8.6,73,29.93,10.0,West,15.0,19.6,N/A,,Overcast,260,2013-12-16 04:15:00
11:35 PM,15.8,8.6,73,29.93,6.0,WSW,10.4,23.0,N/A,,Overcast,240,2013-12-16 04:35:00
11:55 PM,15.8,8.6,73,29.94,5.0,WSW,13.8,17.3,N/A,,Overcast,240,2013-12-16 04:55:00